Location: Arrodets-la-Barthe
(43.0306°N, 0.2829°E)
Time: 19:15:28
(UTC+00:00)

H-2A R/B - Pass Details

Date: 24 October 2021
Orbit: 528 x 650 km, 98.3° (Epoch: 02 December)

Event Time Altitude Azimuth Distance (km) Brightness Sun altitude
Rises 18:16:55 0° 154° (SSE) 2,892 5.8 -14.3°
Reaches altitude 10° 18:19:09 10° 150° (SSE) 1,973 4.9 -14.7°
Maximum altitude 18:23:20 55° 73° (ENE) 730 2.5 -15.5°
Drops below altitude 10° 18:27:24 10° 356° (N) 1,914 5.1 -16.2°
Sets 18:29:33 0° 352° (N) 2,798 6.0 -16.6°
